Preview of NWS' New Version of Forecast
This preview is not operational and should not be used for support decisions.

Regional Weather Roundup (RWR)

Issued by National Weather Service (NWS)

                            
000
ASUS43 KBIS 190102
RWRND 

NORTH DAKOTA REGIONAL WEATHER ROUNDUP
NATIONAL WEATHER SERVICE BISMARCK ND
800 PM CDT THU APR 18 2019

NOTE: "FAIR" INDICATES FEW OR NO CLOUDS BELOW 12,000 FEET WITH NO
SIGNIFICANT WEATHER AND/OR OBSTRUCTIONS TO VISIBILITY.


NDZ001>003-009>011-017-190200-
NORTHWEST NORTH DAKOTA
  
CITY           SKY/WX    TMP DP  RH WIND       PRES   REMARKS
WILLISTON      PTCLDY    57  23  26 NW9       30.04F                  
MINOT          CLEAR     55  34  45 W9        30.03S                  
MINOT AFB      CLEAR     55  36  49 NW6       30.02S                  
$$
 
NDZ018>021-031>035-040>046-190200-
SOUTHWEST NORTH DAKOTA
  
CITY           SKY/WX    TMP DP  RH WIND       PRES   REMARKS
BISMARCK       CLEAR     55  34  45 NW7       30.07S                  
DICKINSON      CLEAR     55  22  27 N9        30.05F                  
GARRISON         N/A     54  35  48 CALM      30.04S                  
HETTINGER ARPT CLEAR     55  23  28 N12       30.09S                  
$$
 
NDZ004>008-012>016-024-026-027-054-190200-
NORTHEAST NORTH DAKOTA
  
CITY           SKY/WX    TMP DP  RH WIND       PRES   REMARKS
GRAND FORKS    PTCLDY    53  34  48 NE3       30.00S                  
GRND FRKS AFB  CLEAR     54  32  43 CALM      30.03R                  
DEVILS LAKE    CLEAR     50  37  61 W12       30.04S                  
$$
 
NDZ022-023-025-028>030-036>039-047>053-190200-
SOUTHEAST NORTH DAKOTA
  
CITY           SKY/WX    TMP DP  RH WIND       PRES   REMARKS
FARGO          CLEAR     51  38  60 N9        30.01R                  
JAMESTOWN      CLEAR     50  39  66 N10       30.03S                  
$$